Regional Weather Roundup
Issued by NWS Charleston, WV

Home | Current Version | Previous Version | Graphics & Text | Print | Product List | Glossary On
Versions: 1 2 3 4 5 6 7 8 9 10 11 12 13 14 15 16 17 18 19 20 21 22 23 24 25 26 27 28 29 30 31 32 33 34 35 36 37 38 39 40 41 42 43 44 45 46 47 48 49 50
000
ASUS41 KRLX 011910
RWRRLX
West Virginia Regional Weather Roundup
National Weather Service Charleston WV
300 PM EDT TUE SEP 01 2015

Note: "fair" indicates few or no clouds below 12,000 feet with no
significant weather and/or obstructions to visibility.

WVZ003-012000-
Northern Panhandle of West Virginia

CITY           SKY/WX    TMP DP  RH WIND       PRES   REMARKS
WHEELING       SUNNY     81  66  60 SW5       30.12F
$$

WVZ009-012000-
Northwest West Virginia

CITY           SKY/WX    TMP DP  RH WIND       PRES   REMARKS
PARKERSBURG    PTSUNNY   89  65  44 NW9       30.13F
$$

WVZ006-012000-
Western West Virginia

CITY           SKY/WX    TMP DP  RH WIND       PRES   REMARKS
HUNTINGTON     PTSUNNY   89  64  43 W6        30.12F
$$

WVZ015-012000-
West Central West Virginia

CITY           SKY/WX    TMP DP  RH WIND       PRES   REMARKS
CHARLESTON     MOSUNNY   87  64  46 VRB3      30.12F
$$

WVZ022-031-012000-
North Central West Virginia

CITY           SKY/WX    TMP DP  RH WIND       PRES   REMARKS
CLARKSBURG     CLOUDY    84  65  52 CALM      30.12F
MORGANTOWN     MOSUNNY   90  63  40 VRB3      30.12F
$$

WVZ025-035-042-045-012000-
Southern West Virginia

CITY           SKY/WX    TMP DP  RH WIND       PRES   REMARKS
BECKLEY        CLOUDY    81  60  48 N3        30.21S
LOGAN            N/A     84  66  54 VRB7      30.16F
BLUEFIELD      CLOUDY    80  61  52 CALM      30.23F
LEWISBURG      CLOUDY    79  65  61 NW3       30.20R
$$

WVZ047-012000-
Northern Mountains of West Virginia

CITY           SKY/WX    TMP DP  RH WIND       PRES   REMARKS
ELKINS         PTSUNNY   81  64  56 NW5       30.18F
$$

WVZ052-012000-
Eastern Panhandle of West Virginia

CITY           SKY/WX    TMP DP  RH WIND       PRES   REMARKS
MARTINSBURG    SUNNY     91  64  40 VRB3      30.06
PETERSBURG     MOSUNNY   89  65  45 E3        30.09F
$$



USA.gov is the U.S. government's official web portal to all federal, state and local government web resources and services.